| time (UTC) | temp C | wind direction | speed KPH | gust KPH | rain 1hr cm | rain 24hr cm | rain mn cm | humidity % | barometer mb |
| 20260505051527 | 9 | 171 | 1.6 | 8.0 | 0.00 | 0.00 | 0.00 | 85 | 1011.0 |
| 20260505041518 | 10 | 138 | 3.2 | 9.7 | 0.00 | 0.00 | 0.00 | 83 | 1011.4 |
| 20260505040016 | 10 | 188 | 1.6 | 8.0 | 0.00 | 0.00 | 0.00 | 83 | 1011.4 |
| 20260505034514 | 10 | 160 | 4.8 | 11.3 | 0.00 | 0.00 | 0.00 | 82 | 1011.3 |
| 20260505033017 | 10 | 186 | 1.6 | 9.7 | 0.00 | 0.00 | 0.00 | 82 | 1011.2 |
| 20260505031514 | 10 | 172 | 1.6 | 8.0 | 0.00 | 0.00 | 0.00 | 82 | 1011.3 |
| 20260505030013 | 10 | 223 | 4.8 | 12.9 | 0.00 | 0.00 | 0.00 | 81 | 1011.4 |
| 20260505024513 | 10 | 183 | 3.2 | 14.5 | 0.00 | 0.00 | 0.00 | 81 | 1011.4 |
| 20260505023012 | 10 | 193 | 1.6 | 12.9 | 0.00 | 0.00 | 0.00 | 81 | 1011.4 |
| 20260505021513 | 10 | 205 | 4.8 | 12.9 | 0.00 | 0.00 | 0.00 | 81 | 1011.6 |
| 20260505020016 | 10 | 223 | 4.8 | 14.5 | 0.00 | 0.00 | 0.00 | 81 | 1011.5 |
| 20260505014513 | 10 | 208 | 4.8 | 16.1 | 0.00 | 0.00 | 0.00 | 80 | 1011.5 |
| 20260505013009 | 10 | 216 | 3.2 | 16.1 | 0.00 | 0.00 | 0.00 | 79 | 1011.4 |
| 20260505011509 | 10 | 204 | 4.8 | 14.5 | 0.00 | 0.00 | 0.00 | 78 | 1011.2 |
| 20260505010009 | 11 | 215 | 6.4 | 16.1 | 0.00 | 0.00 | 0.00 | 78 | 1010.9 |
| 20260505004513 | 11 | 195 | 4.8 | 17.7 | 0.00 | 0.00 | 0.00 | 77 | 1010.7 |
| 20260505003006 | 11 | 180 | 6.4 | 17.7 | 0.00 | 0.00 | 0.00 | 76 | 1010.4 |
| 20260505001506 | 11 | 192 | 4.8 | 19.3 | 0.00 | 0.00 | 0.00 | 76 | 1010.1 |
| 20260505000008 | 11 | 149 | 4.8 | 19.3 | 0.00 | 0.00 | 0.00 | 75 | 1009.9 |
| 20260504234503 | 12 | 193 | 4.8 | 16.1 | 0.00 | 0.00 | 0.00 | 73 | 1009.6 |
| 20260504233003 | 12 | 213 | 4.8 | 19.3 | 0.00 | 0.00 | 0.00 | 72 | 1009.6 |
| 20260504231502 | 12 | 209 | 4.8 | 14.5 | 0.00 | 0.00 | 0.00 | 71 | 1009.4 |
| 20260504230003 | 12 | 213 | 6.4 | 22.5 | 0.00 | 0.00 | 0.00 | 69 | 1009.2 |
| 20260504224501 | 13 | 213 | 8.0 | 27.4 | 0.00 | 0.00 | 0.00 | 66 | 1009.0 |
| 20260504223000 | 13 | 205 | 6.4 | 17.7 | 0.00 | 0.00 | 0.00 | 63 | 1008.8 |
| 20260504221603 | 14 | 200 | 11.3 | 20.9 | 0.00 | 0.00 | 0.00 | 60 | 1008.8 |
| 20260504220106 | 15 | 215 | 4.8 | 19.3 | 0.00 | 0.00 | 0.00 | 59 | 1008.9 |
| 20260504214606 | 15 | 194 | 8.0 | 25.7 | 0.00 | 0.00 | 0.00 | 56 | 1008.7 |
| 20260504213059 | 16 | 170 | 6.4 | 25.7 | 0.00 | 0.00 | 0.00 | 57 | 1008.8 |
| 20260504211557 | 16 | 201 | 8.0 | 27.4 | 0.00 | 0.00 | 0.00 | 58 | 1008.7 |
| 20260504210105 | 16 | 115 | 6.4 | 19.3 | 0.00 | 0.00 | 0.00 | 57 | 1008.6 |
| 20260504204615 | 16 | 159 | 6.4 | 24.1 | 0.00 | 0.00 | 0.00 | 56 | 1008.5 |
| 20260504203129 | 17 | 133 | 9.7 | 22.5 | 0.00 | 0.00 | 0.00 | 55 | 1008.5 |
| 20260504201555 | 17 | 170 | 9.7 | 25.7 | 0.00 | 0.00 | 0.00 | 53 | 1008.4 |
| 20260504200054 | 17 | 202 | 11.3 | 25.7 | 0.00 | 0.00 | 0.00 | 50 | 1008.5 |
| 20260504194553 | 17 | 134 | 12.9 | 32.2 | 0.00 | 0.00 | 0.00 | 48 | 1008.5 |
| 20260504193053 | 18 | 229 | 9.7 | 17.7 | 0.00 | 0.00 | 0.00 | 49 | 1008.5 |
| 20260504191554 | 18 | 190 | 9.7 | 20.9 | 0.00 | 0.00 | 0.00 | 47 | 1008.6 |
| 20260504190053 | 18 | 201 | 12.9 | 24.1 | 0.00 | 0.00 | 0.00 | 44 | 1008.7 |
| 20260504184549 | 18 | 202 | 12.9 | 27.4 | 0.00 | 0.00 | 0.00 | 46 | 1008.6 |
| 20260504183047 | 18 | 130 | 8.0 | 20.9 | 0.00 | 0.00 | 0.00 | 48 | 1008.8 |
| 20260504181546 | 18 | 198 | 8.0 | 27.4 | 0.00 | 0.00 | 0.00 | 49 | 1009.0 |
| 20260504180045 | 18 | 194 | 8.0 | 30.6 | 0.00 | 0.00 | 0.00 | 49 | 1008.8 |
| 20260504174546 | 18 | 161 | 11.3 | 30.6 | 0.00 | 0.00 | 0.00 | 46 | 1008.9 |
| 20260504173057 | 18 | 192 | 11.3 | 27.4 | 0.00 | 0.00 | 0.00 | 43 | 1008.8 |
| 20260504171543 | 20 | 147 | 4.8 | 20.9 | 0.00 | 0.00 | 0.00 | 40 | 1008.9 |
| 20260504081530 | 7 | 202 | 0.0 | 4.8 | 0.00 | 0.00 | 0.00 | 70 | 1011.0 |